Погода в Рябчах

Россия / Брянская область     53°33′48″N   33°27′48″E
темп.,
°C
ветер,
м/с
пор.,
м/с
влажн.,
%
обл.,
%
осадки,
мм/ч
давл.,
гПа
погр.,
м
15 мая, сб
сб1500:00+12ю369526 0.0 1007104
03:00+11ю359638 0.0 100787
06:00+11ю369767 0.8 1007153
09:00+16ююз35843 1.4 1008421
12:00+18ююз466427 1.3 10081334
15:00+18ююз457199 4.0 10071068
18:00+17юз478217 1.8 1008667
21:00+13ююз399571 2.9 1009233
16 мая, вс
вс1600:00+11ююз38965 0.0 1010173
03:00+10ююз37975 0.0 1011141
06:00+10ююз37965 0.0 1012189
09:00+15юз35817 0.0 1013505
12:00+19юз346151 0.3 10131422
15:00+18ююз3569100 0.4 1013359
18:00+19ююз236891 0.1 1013539
21:00+14ююв0180100 0.1 101311
17 мая, пн
пн1700:00+13в2386100 0.0 101338
03:00+12в359444 0.0 101388
06:00+12в3891100 0.0 1012181
09:00+17в51076100 0.1 1010423
12:00+23вюв6960100 0.0 10081019
15:00+25вюв611558 0.0 10061493
18:00+23вюв5106494 0.0 10051048
21:00+18вюв4118399 0.0 1004301
18 мая, вт
вт1800:00+17юв41487100 0.3 1004480
03:00+15юв41195100 1.3 1003309
06:00+15вюв41196100 0.9 1002327
09:00+18ююв61283100 0.9 1003878
12:00+20ююв7127286 0.1 10031401
15:00+17ююв61184100 0.4 1002833
18:00+17ююв51091100 1.6 1002675
21:00+15ююв31092100 3.4 1001308
19 мая, ср
ср1900:00+14ююв41096100 0.7 1001452
03:00+12ююз61095100 1.5 1002661
06:00+11ю51095100 0.1 1003643
09:00+12ю6108998 0.5 1004872
12:00+13ююз8137978 0.9 10041465
15:00+15ю8147378 2.0 10041837
18:00+11ююз81584100 0.8 10041368
21:00+9ююз71295100 1.1 1006869